Regional Weather Roundup
Issued by NWS

Home | Current Version | Previous Version | Text Only | Print | Product List | Glossary On
Versions: 1 2 3 4 5 6 7 8 9 10 11 12 13 14 15 16 17 18 19 20 21 22 23 24 25 26 27 28 29 30 31 32 33 34 35 36 37 38 39 40 41 42 43 44 45 46 47 48 49 50
000
ASUS43 KDTX 130510
RWRMI
MICHIGAN HOURLY REGIONAL WEATHER ROUNDUP
NATIONAL WEATHER SERVICE DETROIT/PONTIAC MI
1200 AM EST SAT FEB 13 2016

NOTE: "FAIR" INDICATES FEW OR NO CLOUDS BELOW 12,000 FEET WITH NO
SIGNIFICANT WEATHER AND/OR OBSTRUCTION TO VISIBILITY.

MIZ047>049-052>055-059>063-066>070-074>076-081>083-130600-
SOUTHEAST LOWER MICHIGAN

CITY           SKY/WX    TMP DP  RH WIND       PRES   REMARKS
ADRIAN         CLOUDY     9  -1  64 N18G26    30.26R WCI -10
ALMA           CLEAR      6  -6  56 NW9       30.28R WCI  -8
ANN ARBOR      CLEAR      7  -8  50 NW13G23   30.23R WCI  -9
BAD AXE        CLEAR      5  -6  60 NW20G30   30.19R HAZE    WCI -15
CARO           CLEAR      3  -6  66 NW7       30.22R WCI  -9
DETROIT CITY   PTCLDY     9  -8  46 NW16G24   30.22R WCI  -8
DETROIT        PTCLDY     8  -7  50 NW12      30.25R WCI  -7
FLINT          LGT SNOW   8  -1  66 NW14      30.24R WCI  -8
GROSSE ILE     CLEAR     10  -6  48 NW15G23   30.22R WCI  -6
HILLSDALE      PTCLDY     6  -6  56 N10G17    30.23R WCI  -8
HOWELL         CLEAR      6  -8  53 NW13G20   30.23R WCI -11

CITY           SKY/WX    TMP DP  RH WIND       PRES   REMARKS
JACKSON        CLOUDY     7  -5  57 NW12      30.26R WCI  -8
LAMBERTVILLE   PTCLDY    10  -1  63 N10G18    30.26R WCI  -4
LANSING        CLEAR      6  -8  52 NW14      30.28R WCI -11
LAPEER         FAIR       5  -5  63 NW8G18    30.21R WCI  -8
MASON          CLEAR      6  -4  63 NW14      30.26R WCI -11
MONROE         PTCLDY    10  -2  57 NW8       30.24R WCI  -2
MT. CLEMENS    PTCLDY     7  -2  66 NW14G21   30.20R WCI -10
PONTIAC        PTCLDY     5  -8  55 NW18G24   30.19R WCI -15
PORT HOPE        N/A      8  -2  63 NW26G40   30.16R WCI -14
PORT HURON     CLEAR      5  -6  61 NW15G22   30.20R WCI -13
TRI CITIES     LGT SNOW   7   0  73 NW16      30.27R WCI -11
MIDLAND        FAIR       6  -3  68 NW6       30.26R WCI  -5
TROY           PTCLDY     9  -7  47 NW12G17   30.24R WCI  -5
SAGINAW HB     PTCLDY     5  -4  66 NW7       30.26R WCI  -7
$$
MIZ043>046-050>051-056>058-064>065-071>073-077>080-130600-
SOUTHWEST LOWER MICHIGAN

CITY           SKY/WX    TMP DP  RH WIND       PRES   REMARKS
BATTLE CREEK   PTCLDY     8  -4  58 N13       30.29R WCI  -8
BENTON HARBOR  SNOW      13   6  74 NW12G23   30.35R VSB 1/2 WCI  -1
BIG RAPIDS     CLEAR      3  -4  71 NW6       30.26S WCI  -8
COLDWATER      CLOUDY    10   0  65 N7        30.27R WCI  -2
FREMONT        CLOUDY     5  -1  74 NW14      30.32R WCI -12
HOLLAND        LGT SNOW   9   2  73 N9        30.35R WCI  -4
GRAND RAPIDS   PTCLDY     7  -3  64 NW16      30.32R WCI -11
IONIA          FAIR       5  -7  56 NW7       30.29R WCI  -7
KALAMAZOO      CLEAR      7  -4  60 N21G28    30.30R WCI -13
LUDINGTON      LGT SNOW   8   1  72 NW14G25   30.34R WCI  -8
MARSHALL       CLOUDY     8  -4  58 N9G20     30.27R WCI  -5
MOUNT PLEASANT CLEAR      6  -6  57 NW8       30.26R WCI  -7
MUSKEGON       LGT SNOW   8   2  76 N10G22    30.36R WCI  -6
SOUTH HAVEN      N/A     11   7  85 NE12      30.34R WCI  -4
$$
MIZ016>042-130600-
NORTHERN LOWER MICHIGAN

CITY           SKY/WX    TMP DP  RH WIND       PRES   REMARKS
ALPENA         LGT SNOW   0  -6  76 N24G33    30.24R VSB 3/4 WCI -24
BEAVER ISLAND  LGT SNOW   4   1  83 NE6       30.27R WCI  -6
BELLAIRE       LGT SNOW   7  -1  71 N12G18    30.27R WCI  -9
CADILLAC       LGT SNOW   3  -2  79 W9        30.20R WCI -12
CHARLEVOIX     LGT SNOW   6   1  81 N15       30.28R WCI -12
FRANKFORT      CLOUDY     9  -1  63 NW16G26   30.32R HAZE    WCI  -8
GAYLORD        CLOUDY    -2 -10  69 N5        30.18R WCI -12
GRAYLING       LGT SNOW   4  -1  79 N8        30.19R WCI -10
HARBOR SPRINGS PTCLDY    -2  -9  74 NE9       30.27R WCI -18
HOUGHTON LAKE  CLOUDY     3  -3  76 NW10      30.19R WCI -12
MANISTEE       CLOUDY     9   0  66 NW14G26   30.32R VSB 3/4 WCI  -8
OSCODA         CLEAR      1  -9  60 NW13      30.22R WCI -16
PELLSTON       CLOUDY    -4 -12  68 NE12      30.29R WCI -22
ROGERS CITY    CLOUDY    -2  -9  71 N16G24    30.26R WCI -23
TRAVERSE CITY  LGT SNOW   9   4  80 NW13      30.26S WCI  -7
$$
MIZ007>008-015-130600-
EASTERN UPPER MICHIGAN

CITY           SKY/WX    TMP DP  RH WIND       PRES   REMARKS
KINROSS        CLOUDY   -13 -22  64 NE8       30.28R WCI -30
MACKINAC ISLAN CLEAR     -9 -20  58 NE13G22   30.29R WCI -29
NEWBERRY       LGT SNOW   1  -2  87 NE6       30.24R WCI -11
S. S. MARIE    PTCLDY   -12 -25  52 NE9G18    30.28R WCI -30
MUNISING         N/A      8   2  76 N20G31    30.29R WCI -11
$$
MIZ004>006-011>014-085-130600-
CENTRAL UPPER MICHIGAN

CITY           SKY/WX    TMP DP  RH WIND       PRES   REMARKS
MANISTIQUE     LGT SNOW   3  -1  82 W8        30.28R WCI -11
ESCANABA       CLEAR      0 -13  55 NW14G20   30.34R WCI -19
MENOMINEE      CLEAR      0 -11  60 W7        30.39S WCI -13
SAWYER-GWINN   CLOUDY    -1  -7  74 NW15      30.27R WCI -20
$$
MIZ001>003-009>011-084-130600-
WESTERN UPPER MICHIGAN

CITY           SKY/WX    TMP DP  RH WIND       PRES   REMARKS
IRON MOUNTAIN  CLEAR     -6 -12  75 NW3       30.32R
HOUGHTON       LGT SNOW   1  -5  75 NW18      30.34R VSB 3/4 WCI -20
COPPER HARBOR    N/A      5   0  79 N29G37    30.35R WCI -19
IRONWOOD       CLOUDY     1   0  92 NW14G20   30.38S VSB 1   WCI -17
$$

ABBREVIATIONS USED IN REMARKS
   TC - TEMPERATURE IN CELSIUS
  WCI - WIND CHILL INDEX
   HX - HEAT INDEX
  VSB - VISIBILITY




USA.gov is the U.S. government's official web portal to all federal, state and local government web resources and services.